Location: Saint-Usage
(47.1052°N, 5.2587°E)
Time: 10:19:23
(UTC+02:00)

ISS - Pass Details

Date: 25 September 2021
Orbit: 417 x 423 km, 51.6° (Epoch: 24 October)

Event Time Altitude Azimuth Distance (km) Brightness Sun altitude
Rises 21:43:01 0° 290° (WNW) 2,366 1.5 -22.8°
Reaches altitude 10° 21:45:11 10° 298° (WNW) 1,502 0.2 -23.1°
Enters shadow 21:47:44 36° 338° (NNW) 688 -2.4 -23.5°
